Guernsey, United Kingdom

9:00 PM BST on April 21, 2018 (GMT +0100)
Guernsey

Weather History for EGJB - October, 2013

Change the Weather History Date:

Tuesday, October 1, 2013

  Actual Average Record
Temperature  
Mean Temperature 62 °F -  
Max Temperature 63 °F 57 °F 75 °F (2011)
Min Temperature 60 °F 51 °F 51 °F (1996)
Degree Days  
Heating Degree Days 4    
Growing Degree Days 12 (Base 50)    
Moisture  
Dew Point 61 °F    
Average Humidity 97    
Maximum Humidity 100    
Minimum Humidity 94    
Precipitation  
Precipitation 0.08 in - - ()
Sea Level Pressure  
Sea Level Pressure 29.69 in    
Wind  
Wind Speed 10 mph ()    
Max Wind Speed 15 mph    
Max Gust Speed -    
Visibility 5.0 miles    
Events Rain , Thunderstorm    
Averages and records for this station are not official NWS values.
T = Trace of Precipitation, MM = Missing Value Source: Averaged Metar Reports

Daily Weather History Graph

Daily Weather History Graph

Search for Another Location

Airport or City:

Astronomy

Oct. 01, 2013 Rise Set
Actual Time 7:10 AM BST 6:48 PM BST
Civil Twilight 6:38 AM BST 7:20 PM BST
Nautical Twilight 6:01 AM BST 7:57 PM BST
Astronomical Twilight 5:23 AM BST 8:35 PM BST
Moon 3:13 AM BST (10/1) 4:58 PM BST (10/1)
Length of Visible Light 12h 42m
Length of Day
11h 38m
Waning Crescent, 13% of the Moon is Illuminated
Oct 1
Waning Crescent
Oct 5
New
Oct 12
First Quarter
Oct 19
Full
Oct 27
Last Quarter

Hourly Weather History & Observations

Time (BST) Temp. Dew Point Humidity Pressure Visibility Wind Dir Wind Speed Gust Speed Precip Events Conditions
1:00 AM 62 °F 61 °F 96% 29.71 in 2 mi SE 11.5 mph - -   Mist
3:50 AM 60.8 °F 60.8 °F 100% 29.68 in 1.9 mi ESE 8.1 mph - N/A   Scattered Clouds
4:00 AM 61 °F 61 °F 98% 29.69 in 2 mi ESE 8.1 mph - -   Mist
4:20 AM 60.8 °F 60.8 °F 100% 29.68 in 3.7 mi SE 8.1 mph - N/A   Scattered Clouds
4:50 AM 60.8 °F 60.8 °F 100% 29.68 in 3.7 mi SE 10.4 mph - N/A   Mostly Cloudy
5:20 AM 60.8 °F 60.8 °F 100% 29.68 in 3.7 mi SSE 11.5 mph - N/A   Scattered Clouds
5:50 AM 60.8 °F 60.8 °F 100% 29.68 in 3.7 mi SSE 10.4 mph - N/A   Mostly Cloudy
6:20 AM 60.8 °F 60.8 °F 100% 29.68 in 5.0 mi SE 9.2 mph - N/A   Partly Cloudy
6:50 AM 60.8 °F 60.8 °F 100% 29.68 in 5.0 mi SE 9.2 mph - N/A   Partly Cloudy
7:00 AM 61 °F 60 °F 97% 29.69 in 5 mi SE 9.2 mph - -   Mist
7:20 AM 60.8 °F 60.8 °F 100% 29.68 in 5.0 mi SE 9.2 mph - N/A   Partly Cloudy
7:50 AM 60.8 °F 60.8 °F 100% 29.68 in 3.1 mi SE 8.1 mph - N/A   Mostly Cloudy
8:20 AM 60.8 °F 60.8 °F 100% 29.71 in 3.7 mi SE 9.2 mph - N/A   Mostly Cloudy
8:50 AM 60.8 °F 60.8 °F 100% 29.68 in 3.7 mi SE 12.7 mph - N/A   Mostly Cloudy
9:20 AM 60.8 °F 60.8 °F 100% 29.68 in 3.1 mi SE 12.7 mph - N/A   Mostly Cloudy
9:50 AM 60.8 °F 60.8 °F 100% 29.71 in 1.9 mi SSE 12.7 mph - N/A   Mostly Cloudy
10:00 AM 60 °F 60 °F 100% 29.72 in 1 mi SSE 12.7 mph - -   Mist
10:20 AM 60.8 °F 60.8 °F 100% 29.71 in 1.2 mi ESE 11.5 mph - N/A   Mostly Cloudy
10:50 AM 60.8 °F 60.8 °F 100% 29.71 in 2.5 mi SE 12.7 mph - N/A   Mostly Cloudy
11:20 AM 60.8 °F 60.8 °F 100% 29.71 in 6.2 mi SE 12.7 mph - N/A   Mostly Cloudy
11:50 AM 60.8 °F 60.8 °F 100% 29.71 in 6.2 mi SE 13.8 mph - N/A   Mostly Cloudy
12:20 PM 60.8 °F 60.8 °F 100% 29.71 in 6.2 mi SE 15.0 mph - N/A   Mostly Cloudy
12:50 PM 62.6 °F 60.8 °F 94% 29.68 in 6.2 mi ESE 15.0 mph - N/A   Mostly Cloudy
1:00 PM 62 °F 61 °F 95% 29.70 in 12 mi ESE 15.0 mph - -   Mostly Cloudy
1:20 PM 62.6 °F 60.8 °F 94% 29.68 in 6.2 mi SE 15.0 mph - N/A   Mostly Cloudy
1:50 PM 62.6 °F 60.8 °F 94% 29.68 in 6.2 mi SE 15.0 mph - N/A   Mostly Cloudy
2:20 PM 62.6 °F 60.8 °F 94% 29.68 in 6.2 mi ESE 12.7 mph - N/A   Mostly Cloudy
2:50 PM 62.6 °F 60.8 °F 94% 29.68 in 6.2 mi ESE 13.8 mph - N/A   Partly Cloudy
3:20 PM 62.6 °F 60.8 °F 94% 29.68 in 6.2 mi SE 11.5 mph - N/A   Mostly Cloudy
3:50 PM 62.6 °F 60.8 °F 94% 29.68 in 6.2 mi SE 12.7 mph - N/A   Mostly Cloudy
4:00 PM 62 °F 61 °F 97% 29.68 in 9 mi SE 12.7 mph - - Rain Light Rain Showers
4:20 PM 62.6 °F 60.8 °F 94% 29.68 in 6.2 mi ESE 13.8 mph - N/A   Mostly Cloudy
4:50 PM 62.6 °F 60.8 °F 94% 29.68 in 2.8 mi ESE 12.7 mph - N/A Rain , Thunderstorm Thunderstorms and Rain
5:20 PM 62.6 °F 60.8 °F 94% 29.68 in 3.1 mi SE 13.8 mph - N/A Rain Light Rain Showers
5:50 PM 62.6 °F 62.6 °F 100% 29.68 in 6.2 mi SE 11.5 mph - N/A   Mostly Cloudy
6:20 PM 62.6 °F 62.6 °F 100% 29.68 in 6.2 mi SE 11.5 mph - N/A   Scattered Clouds
6:50 PM 62.6 °F 60.8 °F 94% 29.68 in 6.2 mi ESE 11.5 mph - N/A   Partly Cloudy
7:00 PM 62 °F 61 °F 97% 29.69 in 11 mi ESE 11.5 mph - -   Partly Cloudy
7:20 PM 62.6 °F 60.8 °F 94% 29.68 in 6.2 mi ESE 13.8 mph - N/A   Partly Cloudy
7:50 PM 62.6 °F 60.8 °F 94% 29.71 in 6.2 mi SE 12.7 mph - N/A   Scattered Clouds
8:20 PM 62.6 °F 60.8 °F 94% 29.71 in 6.2 mi SE 12.7 mph - N/A   Mostly Cloudy
8:50 PM 62.6 °F 60.8 °F 94% 29.71 in 6.2 mi SE 10.4 mph - N/A   Mostly Cloudy
10:00 PM 62 °F 62 °F 100% 29.72 in 4 mi SSE 8.1 mph - -   Mist